This is the latest recevied weather packets stored in our database for station/object W7WSW. If no packets are shown the sender has not sent any weather packets the latest 1 day(s).
| Time | Temp. | Humidity | Pressure | Rain* | Wind** | Luminosity | Snow |
|---|---|---|---|---|---|---|---|
| 1778015320 | 15.56° C | 76% | 1015.7 hPa | 0 mm | - | 461 W/m² | - |
| 1778015200 | 15° C | 77% | 1015.7 hPa | 0 mm | - | 455 W/m² | - |
| 1778015014 | 15° C | 78% | 1015.8 hPa | 0 mm | - | 410 W/m² | - |
| 1778014954 | 15° C | 78% | 1015.8 hPa | 0 mm | - | 424 W/m² | - |
| 1778014894 | 15° C | 78% | 1015.7 hPa | 0 mm | - | 538 W/m² | - |
| 1778014834 | 15° C | 78% | 1015.7 hPa | 0 mm | - | 519 W/m² | - |
| 1778014774 | 15° C | 78% | 1015.8 hPa | 0 mm | - | 519 W/m² | - |
| 1778014714 | 14.44° C | 77% | 1015.8 hPa | 0 mm | - | 519 W/m² | - |
| 1778014654 | 14.44° C | 77% | 1015.8 hPa | 0 mm | - | 517 W/m² | - |
| 1778014594 | 14.44° C | 76% | 1015.7 hPa | 0 mm | - | 603 W/m² | - |
| 1778014534 | 15° C | 77% | 1015.8 hPa | 0 mm | - | 527 W/m² | - |
| 1778014474 | 15° C | 77% | 1015.8 hPa | 0 mm | - | 508 W/m² | - |
| 1778013870 | 14.44° C | 77% | 1015.8 hPa | 0 mm | - | 490 W/m² | - |
| 1778013810 | 14.44° C | 77% | 1015.9 hPa | 0 mm | - | 448 W/m² | - |
| 1778013750 | 14.44° C | 77% | 1015.8 hPa | 0 mm | - | 450 W/m² | - |
| 1778013390 | 15° C | 77% | 1016 hPa | 0 mm | - | 446 W/m² | - |
| 1778013206 | 15° C | 77% | 1016 hPa | 0 mm | - | 504 W/m² | - |
| 1778012426 | 14.44° C | 77% | 1015.9 hPa | 0 mm | - | 534 W/m² | - |
| 1778012306 | 14.44° C | 77% | 1015.8 hPa | 0 mm | - | 475 W/m² | - |
| 1778012246 | 14.44° C | 77% | 1015.8 hPa | 0 mm | - | 476 W/m² | - |
| 1778012062 | 14.44° C | 77% | 1015.8 hPa | 0 mm | - | 475 W/m² | - |
| 1778012002 | 14.44° C | 78% | 1015.8 hPa | 0 mm | - | 471 W/m² | - |
| 1778011162 | 14.44° C | 77% | 1015.9 hPa | 0 mm | - | 487 W/m² | - |
| 1778011042 | 14.44° C | 78% | 1015.8 hPa | 0 mm | - | 422 W/m² | - |
| 1778010982 | 14.44° C | 77% | 1015.8 hPa | 0 mm | - | 422 W/m² | - |
* Rain latest hour (hover to see other rain measurements)
** Current wind speed in m/s (hover to see current wind gust speed)